#timestamp,LO_Frequency,Hit,Temp,Hum 
1479841215.4,286047634.5,N,0.0,0.0
1479841235.2,286047632.3,N,0.0,0.0
1479841255.1,286047631.4,N,0.0,0.0
1479841256.0,286047631.4,N,0.0,0.0
1479841275.8,286047628.8,N,0.0,0.0
1479841295.7,286047630.6,N,0.0,0.0
1479841315.5,286047630.7,N,0.0,0.0
1479841335.3,286047632.3,N,0.0,0.0
1479841355.2,286047631.3,N,0.0,0.0
1479841375.0,286047632.7,N,0.0,0.0
1479841375.9,286047632.7,N,0.0,0.0
1479841395.8,286047633.1,N,0.0,0.0
1479841415.6,286047630.6,N,0.0,0.0
1479841435.4,286047630.8,N,0.0,0.0
1479841455.3,286047630.9,N,0.0,0.0
1479841475.1,286047631.5,N,0.0,0.0
1479841495.8,286047629.1,N,0.0,0.0
1479841515.7,286047629.4,N,0.0,0.0
1479841535.5,286047628.2,N,0.0,0.0
1479841555.4,286047628.0,N,0.0,0.0
1479841575.2,286047627.7,N,0.0,0.0
1479841595.0,286047627.6,N,0.0,0.0
1479841595.9,286047627.6,N,0.0,0.0
1479841615.8,286047628.2,N,0.0,0.0
1479841635.6,286047628.0,N,0.0,0.0
1479841655.5,286047625.3,N,0.0,0.0
1479841675.3,286047626.6,N,0.0,0.0
1479841695.1,286047626.3,N,0.0,0.0
1479841715.9,286047623.7,N,0.0,0.0
1479841735.7,286047623.7,N,0.0,0.0
1479841755.5,286047626.4,N,0.0,0.0
1479841775.4,286047624.9,N,0.0,0.0
1479841795.2,286047625.2,N,0.0,0.0
1479841815.1,286047625.2,N,0.0,0.0
1479841816.0,286047625.2,N,0.0,0.0
1479841835.8,286047624.5,N,0.0,0.0
1479841855.6,286047620.9,N,0.0,0.0
1479841875.5,286047619.5,N,0.0,0.0
1479841895.3,286047619.3,N,0.0,0.0
1479841915.2,286047620.3,N,0.0,0.0
1479841935.9,286047618.1,N,0.0,0.0
1479841955.7,286047615.9,N,0.0,0.0
1479841975.6,286047616.8,N,0.0,0.0
1479841995.4,286047614.9,N,0.0,0.0
1479842015.2,286047613.4,N,0.0,0.0
1479842035.1,286047611.2,N,0.0,0.0
1479842036.0,286047611.2,N,0.0,0.0
1479842055.8,286047612.3,N,0.0,0.0
1479842075.7,286047610.3,N,0.0,0.0
1479842095.5,286047608.1,N,0.0,0.0
1479842115.3,286047608.4,N,0.0,0.0
1479842135.2,286047610.8,N,0.0,0.0
1479842155.0,286047609.0,N,0.0,0.0
1479842155.9,286047609.0,N,0.0,0.0
1479842175.7,286047606.3,N,0.0,0.0
1479842195.6,286047606.8,N,0.0,0.0
1479842215.4,286047604.8,N,0.0,0.0
1479842235.3,286047605.7,N,0.0,0.0
1479842255.1,286047603.2,N,0.0,0.0
1479842275.8,286047603.8,N,0.0,0.0
1479842295.7,286047603.7,N,0.0,0.0
1479842315.5,286047604.3,N,0.0,0.0
1479842335.4,286047601.9,N,0.0,0.0
1479842355.2,286047602.0,N,0.0,0.0
1479842375.0,286047602.5,N,0.0,0.0
1479842375.9,286047602.5,N,0.0,0.0
1479842395.8,286047599.7,N,0.0,0.0
1479842415.6,286047601.1,N,0.0,0.0
1479842435.4,286047600.7,N,0.0,0.0
1479842455.3,286047598.2,N,0.0,0.0
1479842475.1,286047598.6,N,0.0,0.0
1479842495.9,286047599.3,N,0.0,0.0
1479842515.7,286047599.6,N,0.0,0.0
1479842535.5,286047597.0,N,0.0,0.0
1479842555.4,286047597.3,N,0.0,0.0
1479842575.2,286047597.7,N,0.0,0.0
1479842595.1,286047597.3,N,0.0,0.0
1479842596.0,286047597.3,N,0.0,0.0
1479842615.8,286047596.7,N,0.0,0.0
1479842635.6,286047596.9,N,0.0,0.0
1479842655.5,286047596.8,N,0.0,0.0
1479842675.3,286047597.4,N,0.0,0.0
1479842695.1,286047595.1,N,0.0,0.0
1479842715.9,286047595.5,N,0.0,0.0
1479842735.7,286047596.2,N,0.0,0.0
1479842755.6,286047596.4,N,0.0,0.0
1479842775.4,286047596.3,N,0.0,0.0
1479842795.2,286047596.4,N,0.0,0.0
1479842815.1,286047593.4,N,0.0,0.0
1479842816.0,286047593.4,N,0.0,0.0
1479842835.8,286047593.6,N,0.0,0.0
1479842855.7,286047593.6,N,0.0,0.0
1479842875.5,286047593.5,N,0.0,0.0
1479842895.3,286047594.1,N,0.0,0.0
1479842915.2,286047596.3,N,0.0,0.0
1479842935.0,286047593.8,N,0.0,0.0
1479842935.9,286047593.8,N,0.0,0.0
1479842955.8,286047593.3,N,0.0,0.0
1479842975.6,286047593.7,N,0.0,0.0
1479842995.4,286047596.3,N,0.0,0.0
1479843015.3,286047596.3,N,0.0,0.0
1479843035.1,286047593.3,N,0.0,0.0
1479843055.8,286047596.4,N,0.0,0.0
1479843075.7,286047596.4,N,0.0,0.0
1479843095.5,286047593.8,N,0.0,0.0
1479843115.4,286047594.0,N,0.0,0.0
1479843135.2,286047593.6,N,0.0,0.0
1479843155.0,286047593.7,N,0.0,0.0
1479843155.9,286047593.7,N,0.0,0.0
1479843175.8,286047596.4,N,0.0,0.0
1479843195.6,286047593.4,N,0.0,0.0
1479843215.5,286047593.3,N,0.0,0.0
1479843235.3,286047595.9,N,0.0,0.0
1479843255.1,286047596.2,N,0.0,0.0
1479843275.9,286047595.8,N,0.0,0.0
1479843295.7,286047595.7,N,0.0,0.0
1479843315.5,286047595.2,N,0.0,0.0
1479843335.4,286047595.6,N,0.0,0.0
1479843355.2,286047596.2,N,0.0,0.0
1479843375.0,286047596.1,N,0.0,0.0
1479843376.0,286047596.1,N,0.0,0.0
1479843395.8,286047595.1,N,0.0,0.0
1479843415.6,286047597.8,N,0.0,0.0
1479843435.5,286047596.6,N,0.0,0.0
1479843455.3,286047597.1,N,0.0,0.0
1479843475.1,286047596.6,N,0.0,0.0
1479843495.9,286047596.9,N,0.0,0.0
1479843515.7,286047596.6,N,0.0,0.0
1479843535.6,286047599.3,N,0.0,0.0
1479843555.4,286047598.4,N,0.0,0.0
1479843575.2,286047598.4,N,0.0,0.0
1479843595.1,286047598.7,N,0.0,0.0
1479843596.0,286047598.7,N,0.0,0.0
1479843615.8,286047598.7,N,0.0,0.0
1479843635.7,286047599.1,N,0.0,0.0
1479843655.5,286047598.8,N,0.0,0.0
1479843675.3,286047598.8,N,0.0,0.0
1479843695.2,286047599.0,N,0.0,0.0
1479843715.0,286047598.7,N,0.0,0.0
1479843715.9,286047598.7,N,0.0,0.0
1479843735.7,286047598.3,N,0.0,0.0
1479843755.6,286047598.3,N,0.0,0.0
1479843775.4,286047601.2,N,0.0,0.0
1479843795.3,286047600.7,N,0.0,0.0
1479843815.1,286047600.5,N,0.0,0.0
1479843816.0,286047600.5,N,0.0,0.0
1479843835.8,286047600.5,N,0.0,0.0
1479843855.7,286047600.5,N,0.0,0.0
1479843875.5,286047601.1,N,0.0,0.0
1479843895.4,286047600.9,N,0.0,0.0
1479843915.2,286047600.4,N,0.0,0.0
1479843935.0,286047600.5,N,0.0,0.0
1479843935.9,286047600.5,N,0.0,0.0
1479843955.8,286047600.9,N,0.0,0.0
1479843975.6,286047600.8,N,0.0,0.0
1479843995.4,286047600.4,N,0.0,0.0
1479844015.3,286047599.9,N,0.0,0.0
1479844035.1,286047600.3,N,0.0,0.0
1479844055.9,286047600.3,N,0.0,0.0
1479844075.7,286047600.6,N,0.0,0.0
1479844095.5,286047600.1,N,0.0,0.0
1479844115.4,286047602.4,N,0.0,0.0
1479844135.2,286047602.6,N,0.0,0.0
1479844155.1,286047602.8,N,0.0,0.0
1479844156.0,286047602.8,N,0.0,0.0
1479844175.8,286047602.7,N,0.0,0.0
1479844195.6,286047600.0,N,0.0,0.0
1479844215.5,286047600.2,N,0.0,0.0
1479844235.3,286047602.4,N,0.0,0.0
1479844255.1,286047602.4,N,0.0,0.0
1479844275.9,286047602.8,N,0.0,0.0
1479844295.7,286047602.6,N,0.0,0.0
1479844315.6,286047602.8,N,0.0,0.0
1479844335.4,286047599.8,N,0.0,0.0
1479844355.2,286047599.7,N,0.0,0.0
1479844375.1,286047602.8,N,0.0,0.0
1479844376.0,286047602.8,N,0.0,0.0
1479844395.8,286047602.7,N,0.0,0.0
1479844415.7,286047602.7,N,0.0,0.0
1479844435.5,286047599.8,N,0.0,0.0
1479844455.3,286047600.2,N,0.0,0.0
1479844475.2,286047600.0,N,0.0,0.0
1479844495.0,286047599.8,N,0.0,0.0
1479844495.9,286047599.8,N,0.0,0.0
1479844515.8,286047602.5,N,0.0,0.0
1479844535.6,286047602.0,N,0.0,0.0
1479844555.4,286047604.4,N,0.0,0.0
1479844575.3,286047601.5,N,0.0,0.0
1479844595.1,286047604.4,N,0.0,0.0
1479844596.0,286047604.4,N,0.0,0.0
1479844615.8,286047604.3,N,0.0,0.0
1479844635.7,286047603.8,N,0.0,0.0
1479844655.5,286047603.2,N,0.0,0.0
1479844675.4,286047605.9,N,0.0,0.0
1479844695.2,286047603.5,N,0.0,0.0
1479844715.0,286047605.9,N,0.0,0.0
1479844715.9,286047605.9,N,0.0,0.0
1479844735.8,286047603.2,N,0.0,0.0
1479844755.6,286047605.8,N,0.0,0.0
1479844775.4,286047604.8,N,0.0,0.0
1479844795.3,286047607.5,N,0.0,0.0
